Regional Weather Roundup
Issued by NWS

Home | Current Version | Previous Version | Text Only | Print | Product List | Glossary Off
Versions: 1 2 3 4 5 6 7 8 9 10 11 12 13 14 15 16 17 18 19 20 21 22 23 24 25 26 27 28 29 30 31 32 33 34 35 36 37 38 39 40 41 42 43 44 45 46 47 48 49 50

000
ASUS43 KDTX 021810
RWRMI
MICHIGAN HOURLY REGIONAL WEATHER ROUNDUP
NATIONAL WEATHER SERVICE DETROIT/PONTIAC MI
200 PM EDT TUE SEP 02 2014

NOTE: "FAIR" INDICATES FEW OR NO CLOUDS BELOW 12,000 FEET WITH NO
SIGNIFICANT WEATHER AND/OR OBSTRUCTION TO VISIBILITY.

MIZ047>049-052>055-059>063-066>070-074>076-081>083-021900-
SOUTHEAST LOWER MICHIGAN

CITY           SKY/WX    TMP DP  RH WIND       PRES   REMARKS
ADRIAN         LGT RAIN  72  68  87 NW8       29.90S FOG
6HR MIN TEMP:  67; 6HR MAX TEMP:  73; 6HR PCP:  0.11;

ALMA           PTSUNNY   75  56  51 W10       29.87S
ANN ARBOR      CLOUDY    73  68  84 S7        29.88R
BAD AXE        PTSUNNY   73  60  64 W10G16    29.84S
6HR MIN TEMP:  67; 6HR MAX TEMP:  76;

DETROIT CITY   CLOUDY    73  68  84 SW8       29.87S
6HR MIN TEMP:  72; 6HR MAX TEMP:  73; 6HR PCP:  0.15;

DETROIT        LGT RAIN  71  68  90 S9        29.88S
6HR MIN TEMP:  69; 6HR MAX TEMP:  71; 6HR PCP:  0.40;

FLINT          PTSUNNY   77  58  51 W15       29.86S
6HR MIN TEMP:  70; 6HR MAX TEMP:  81;

GROSSE ILE     CLOUDY    70  66  88 SW6       29.87S
HILLSDALE      RAIN      71  71  98 CALM      29.89F
HOWELL         CLOUDY    74  61  62 NW10      29.88R
6HR MIN TEMP:  67; 6HR MAX TEMP:  75;


CITY           SKY/WX    TMP DP  RH WIND       PRES   REMARKS
JACKSON        CLOUDY    73  64  73 NW5       29.89S
6HR MIN TEMP:  69; 6HR MAX TEMP:  75;

LAMBERTVILLE   CLOUDY    72  68  88 SW9       29.90S
LANSING        CLOUDY    75  59  57 W10       29.88F
6HR MIN TEMP:  67; 6HR MAX TEMP:  75;

LAPEER         NOT AVBL
MASON          CLOUDY    73  61  65 W6        29.89S
MONROE         CLOUDY    72  68  88 SW13      29.87S
MT. CLEMENS    DRIZZLE   74  69  83 S7        29.84S
                                      6HR PCP:  0.13;

PONTIAC        PTSUNNY   77  61  57 W9        29.86S
6HR MIN TEMP:  69; 6HR MAX TEMP:  77;

PORT HOPE        N/A     71  65  81 NW8       29.81F
6HR MIN TEMP:  67; 6HR MAX TEMP:  74;

PORT HURON     PTSUNNY   73  64  73 W5        29.85S
TRI CITIES     CLOUDY    77  60  55 W13       29.86S
6HR MIN TEMP:  67; 6HR MAX TEMP:  77;

YPSILANTI      CLOUDY    75  68  78 SW10      29.88S
6HR MIN TEMP:  72; 6HR MAX TEMP:  75; 6HR PCP:  0.23;

$$
MIZ043>046-050>051-056>058-064>065-071>073-077>080-021900-
SOUTHWEST LOWER MICHIGAN

CITY           SKY/WX    TMP DP  RH WIND       PRES   REMARKS
BATTLE CREEK   CLOUDY    76  62  62 VRB6      29.90F
6HR MIN TEMP:  69; 6HR MAX TEMP:  76;

BENTON HARBOR  MOSUNNY   76  63  64 W8        29.90S
6HR MIN TEMP:  66; 6HR MAX TEMP:  77;

BIG RAPIDS     MOSUNNY   75  55  50 W8G20     29.88F
6HR MIN TEMP:  59; 6HR MAX TEMP:  76;

COLDWATER      CLOUDY    74  70  87 W3        29.89F
6HR MIN TEMP:  70; 6HR MAX TEMP:  74;

HOLLAND        SUNNY     78  60  53 W7        29.90S
6HR MIN TEMP:  64; 6HR MAX TEMP:  78;

GRAND RAPIDS   PTSUNNY   78  62  57 NW10      29.88F
6HR MIN TEMP:  66; 6HR MAX TEMP:  79;

KALAMAZOO      CLOUDY    77  61  57 W9        29.90F
6HR MIN TEMP:  68; 6HR MAX TEMP:  77;

MARSHALL       CLOUDY    74  62  65 W7G17     29.89F
MUSKEGON       PTSUNNY   77  57  50 SW9       29.90R
6HR MIN TEMP:  66; 6HR MAX TEMP:  78;

$$
MIZ016>042-021900-
NORTHERN LOWER MICHIGAN

CITY           SKY/WX    TMP DP  RH WIND       PRES   REMARKS
ALPENA         MOSUNNY   75  56  51 W10G16    29.82F
6HR MIN TEMP:  64; 6HR MAX TEMP:  75;

BEAVER ISLAND  PTSUNNY   69  59  69 SW9       29.84S
BELLAIRE       CLOUDY    72  55  53 W6        29.86R
6HR MIN TEMP:  64; 6HR MAX TEMP:  73;

CADILLAC       CLOUDY    73  60  63 W7        29.89S
CHARLEVOIX     CLOUDY    71  62  72 SW13      29.88S
6HR MIN TEMP:  65; 6HR MAX TEMP:  72;

FRANKFORT      CLOUDY    71  60  67 W7        29.88S
GAYLORD        PTSUNNY   69  50  50 W13G18    29.86F
6HR MIN TEMP:  60; 6HR MAX TEMP:  71;

GRAYLING       PTSUNNY   74  56  52 W6        29.88R
6HR MIN TEMP:  62; 6HR MAX TEMP:  74;

HARBOR SPRINGS CLOUDY    70  62  75 W8        29.85R
HOUGHTON LAKE  MOSUNNY   75  51  43 NW12      29.87S
6HR MIN TEMP:  62; 6HR MAX TEMP:  76;

MANISTEE       CLOUDY    72  55  56 W10       29.89F
OSCODA         MOSUNNY   76  58  54 NW8       29.82S
PELLSTON       CLOUDY    71  57  61 W10       29.84R
6HR MIN TEMP:  57; 6HR MAX TEMP:  73;

TRAVERSE CITY  CLOUDY    74  54  49 W12       29.85S
6HR MIN TEMP:  64; 6HR MAX TEMP:  75;

$$
MIZ007>008-015-021900-
EASTERN UPPER MICHIGAN

CITY           SKY/WX    TMP DP  RH WIND       PRES   REMARKS
KINROSS        PTSUNNY   72  55  56 W14       29.80F
6HR MIN TEMP:  59; 6HR MAX TEMP:  73;

MACKINAC ISLAN PTSUNNY   67  61  79 SW7       29.83R
NEWBERRY       CLOUDY    72  56  57 W9G21     29.81S
S. S. MARIE    MOSUNNY   72  57  59 W10       29.80F
6HR MIN TEMP:  58; 6HR MAX TEMP:  72;

$$
MIZ004>006-011>014-085-021900-
CENTRAL UPPER MICHIGAN

CITY           SKY/WX    TMP DP  RH WIND       PRES   REMARKS
MANISTIQUE     CLOUDY    68  60  75 SW9       29.82S
ESCANABA       CLOUDY    70  55  60 SW8       29.82S
6HR MIN TEMP:  52; 6HR MAX TEMP:  72; 6HR PCP:  0.01;

MENOMINEE      CLOUDY    66  59  77 W8        29.84S
6HR MIN TEMP:  55; 6HR MAX TEMP:  66; 6HR PCP:  0.08;

SAWYER-GWINN   SUNNY     70  55  60 SW8       29.82F
$$
MIZ001>003-009>011-084-021900-
WESTERN UPPER MICHIGAN

CITY           SKY/WX    TMP DP  RH WIND       PRES   REMARKS
IRON MOUNTAIN  PTSUNNY   73  54  51 NW9       29.83S
6HR MIN TEMP:  52; 6HR MAX TEMP:  73;

HOUGHTON       SUNNY     71  52  50 W14       29.80S
6HR MIN TEMP:  59; 6HR MAX TEMP:  71;

COPPER HARBOR    N/A     68  56  65 N14       29.77S
6HR MIN TEMP:  63; 6HR MAX TEMP:  72;

$$

ABBREVIATIONS USED IN REMARKS
   TC - TEMPERATURE IN CELSIUS
  WCI - WIND CHILL INDEX
   HX - HEAT INDEX
  VSB - VISIBILITY



USA.gov is the U.S. government's official web portal to all federal, state and local government web resources and services.